カタログに戻る

HULIANWANG DIGUI-28

運用中通信PO
NORAD 63695·PAYLOAD·🇨🇳 China

打ち上げ Apr 28, 2025 から Wenchang Space Launch Site

Loading…

次のパス (今後24時間)

TLE

最新Source: Space-Track

元期: Sep 14, 2026, 22:04 UTC

1 63695U 25086J   26257.91951664  .00000038  00000-0  54162-4 0  9996
2 63695  86.4944 282.6751 0001903  81.0951 279.0399 13.24414355 66737

AllMySatでHULIANWANG DIGUI-28をリアルタイム追跡

Download on the App Store